Tracking 30306 objects as of 24-Apr-2025
HD Live streaming from Space Station
objects crossing your sky now

THORAD DELTA 1 DEB

Track THORAD DELTA 1 DEB now!
10-day predictions


NORAD ID: 42608
Int'l Code: 1974-089FZ
Perigee: 1,506.6 km
Apogee: 1,622.7 km
Inclination: 102.5 °
Period: 117.3 minutes
Semi major axis: 7935 km
RCS: Unknown
Launch date: November 15, 1974
Source: United States (US)
Launch site: AIR FORCE WESTERN TEST RANGE (AFWTR)

Note: This is SATELLITE DEBRIS
Your satellite tracking list
Your tracking list is empty




NASA's NSSDC Master Catalog

Two Line Element Set (TLE):
1 42608U 74089FZ  25104.22034685 -.00000017  00000-0  24952-3 0  9994
2 42608 102.4978  85.6381 0073195 257.3438 101.9426 12.28089935510760
Source of the keplerian elements: AFSPC